This is the latest recevied weather packets stored in our database for station/object KI5GCD-13. If no packets are shown the sender has not sent any weather packets the latest 10 day(s).
| Time | Temp. | Humidity | Pressure | Rain* | Wind** | Luminosity | Snow |
|---|---|---|---|---|---|---|---|
| 1778033387 | 8.33° C | 94% | 1006.9 hPa | 0 mm | 1.79 m/s, 340° | - | - |
| 1778033087 | 8.33° C | 95% | 1007 hPa | 0 mm | 0.89 m/s, 33° | - | - |
| 1778032787 | 8.33° C | 95% | 1007.1 hPa | 0 mm | 0.89 m/s, 325° | - | - |
| 1778032487 | 8.89° C | 95% | 1006.9 hPa | 0 mm | 0.89 m/s, 334° | - | - |
| 1778032187 | 8.89° C | 95% | 1006.8 hPa | 0 mm | 0.89 m/s, 11° | - | - |
| 1778031888 | 8.89° C | 94% | 1006.8 hPa | 0 mm | 1.34 m/s, 16° | - | - |
| 1778031587 | 8.89° C | 94% | 1006.9 hPa | 0 mm | 0.89 m/s, 148° | - | - |
| 1778031287 | 8.89° C | 94% | 1006.8 hPa | 0 mm | 0.45 m/s, 83° | - | - |
| 1778030987 | 8.89° C | 93% | 1006.9 hPa | 0 mm | 0.89 m/s, 324° | - | - |
| 1778030687 | 8.89° C | 93% | 1006.6 hPa | 0 mm | 1.34 m/s, 307° | - | - |
| 1778030387 | 8.89° C | 92% | 1006.7 hPa | 0 mm | 1.79 m/s, 332° | - | - |
| 1778030087 | 8.89° C | 92% | 1006.3 hPa | 0 mm | 1.79 m/s, 61° | - | - |
| 1778029788 | 8.89° C | 92% | 1005.9 hPa | 0 mm | 2.68 m/s, 34° | - | - |
| 1778029487 | 8.89° C | 92% | 1006.3 hPa | 0 mm | 1.79 m/s, 236° | - | - |
| 1778029187 | 8.89° C | 92% | 1006 hPa | 0 mm | 2.68 m/s, 47° | - | - |
| 1778028888 | 8.89° C | 91% | 1006.4 hPa | 0 mm | 1.79 m/s, 12° | - | - |
| 1778028588 | 8.89° C | 91% | 1006.3 hPa | 0 mm | 1.34 m/s, 20° | - | - |
| 1778028287 | 8.89° C | 91% | 1006.2 hPa | 0 mm | 1.34 m/s, 7° | - | - |
| 1778027987 | 8.89° C | 91% | 1006 hPa | 0 mm | 1.79 m/s, 12° | - | - |
| 1778027687 | 8.89° C | 91% | 1005.9 hPa | 0 mm | 0.89 m/s, 328° | - | - |
| 1778027387 | 8.89° C | 91% | 1006.5 hPa | 0 mm | 1.34 m/s, 80° | - | - |
| 1778027087 | 8.89° C | 91% | 1006.4 hPa | 0 mm | 0.89 m/s, 79° | - | - |
| 1778026787 | 8.89° C | 91% | 1006.3 hPa | 0 mm | 1.79 m/s, 62° | - | - |
| 1778026487 | 8.89° C | 91% | 1006 hPa | 0 mm | 1.34 m/s, 72° | - | - |
| 1778026187 | 8.89° C | 91% | 1006.2 hPa | 0 mm | 1.79 m/s, 123° | - | - |
* Rain latest hour (hover to see other rain measurements)
** Current wind speed in m/s (hover to see current wind gust speed)